Location: Seattle
(47.6064°N, 122.3308°W)
Time: 14:14:38
(UTC-08:00)

SR - Pass Details

Date: 03 December 2020
Orbit: 575 x 880 km, 66.7° (Epoch: 23 January)

Event Time Altitude Azimuth Distance (km) Brightness Sun altitude
Rises 19:56:38 0° 280° (W) 2,908 ? -35.8°
Reaches altitude 10° 20:00:08 10° 309° (NW) 2,066 ? -36.4°
Enters shadow 20:01:11 12° 322° (NW) 1,948 ? -36.6°
